Other Public Products
Issued by NWS Grand Forks, ND

Home | Current Version | Previous Version | Graphics & Text | Print | Product List | Glossary On
Versions: 1 2 3 4 5 6 7 8 9 10 11 12 13 14 15 16 17 18 19 20 21 22 23 24 25 26 27 28 29 30 31 32 33 34 35 36 37 38 39 40 41 42 43 44 45 46 47 48 49 50
000
FPUS83 KFGF 201010
OPUFGF
PRAIRIE TO PINES WEATHER ROUNDUP
NATIONAL WEATHER SERVICE EASTERN NORTH DAKOTA/GRAND FORKS ND
500 AM CDT WED SEP 20 2017

 **SATELLITE DATA USED TO AUGMENT SKY COVER AT AUTOMATED STATIONS**
 *****  WEATHER ACROSS EASTERN NORTH DAKOTA  *****

CITY           SKY/WX    TMP DP  RH WIND       PRES   REMARKS
GRAND FORKS    CLOUDY    58  54  86 W12       29.49R
GRAND FORKS AF MOCLDY    56  52  88 W10       29.50R
GRAND CITY NWS NOT AVBL
BUXTON         NOT AVBL
DEVILS LAKE    MOCLDY    50  48  93 W12       29.55R
FARGO          FAIR      57  52  83 W12       29.55R
WAHPETON ARPT  FAIR      57  54  88 W9        29.59S
$$

 *****  WEATHER ACROSS CENTRAL AND WESTERN NORTH DAKOTA  *****

CITY           SKY/WX    TMP DP  RH WIND       PRES   REMARKS
JAMESTOWN      FAIR      50  45  83 W13       29.59R
BISMARCK       FAIR      48  42  80 W10       29.66R
MINOT          FAIR      48  43  82 SW10      29.54S
MINOT AFB      FAIR      46  42  88 SW9       29.53R
GARRISON         N/A     43  40  89 W10       29.59R
WILLISTON      FAIR      41  37  86 SW6       29.57F
DICKINSON      FAIR      41  38  89 SW8       29.63S
HETTINGER      FAIR      39  36  89 W6        29.70R
$$

 *****  OTHER OBSERVATIONS NORTHEAST NORTH DAKOTA  *****

CITY           SKY/WX    TMP DP  RH WIND       PRES   REMARKS
WALHALLA       FAIR     N/A N/A N/A W13G20    29.45R
LANGDON        PTSUNNY   52  52 100 W13       29.50R
CAVALIER       PTSUNNY   57  52  82 W14G23    29.45R
GRAFTON        PTSUNNY   57  54  88 W13G22    29.49R
CANDO          FAIR      48  48 100 W9        29.55R
FORT TOTTEN      N/A     49  49  98 W5        29.95S
ROLLA          CLOUDY    50  46  87 W9G17     29.50S
RUGBY          FAIR      46  46 100 SW10      29.54R
 ***** THE ABOVE OBSERVATIONS ARE NON NWS ARE NOT QUALITY
        CONTROLLED AND MAY MIS-REPORT RAIN FOR SNOW...
$$

 *****  OTHER OBSERVATIONS SOUTHEAST NORTH DAKOTA *****

CITY           SKY/WX    TMP DP  RH WIND       PRES   REMARKS
COOPERSTOWN    FAIR      50  48  93 W14       29.57R
VALLEY CITY    FAIR      52  52 100 W12       29.59R
OAKES          NOT AVBL
GWINNER        SUNNY     55  52  88 W10       29.62R
SHEYENNE NWR     N/A     55  52  90 NW7       29.95S
BUFFALO        NOT AVBL
WYNDMERE       NOT AVBL
 ***** THE ABOVE OBSERVATIONS ARE NON NWS ARE NOT QUALITY
       CONTROLLED AND MAY MIS-REPORT RAIN FOR SNOW...
$$

  *****  WEATHER ACROSS NORTHERN MINNESOTA  *****

CITY           SKY/WX    TMP DP  RH WIND       PRES   REMARKS
FLAG ISLAND    FAIR      61  59  94 S13       29.40S
WARROAD        FAIR      61  55  82 S9        29.42F
ROSEAU         FAIR      61  55  82 S9        29.41F
HALLOCK        DRIZZLE   59  55  88 W9G16     29.46R
THF RVR FALLS  LGT RAIN  59  57  94 W17G25    29.50R
HALSTAD        NOT AVBL
FOSSTON        MOCLDY    59  57  94 SW13      29.51R
BAUDETTE       MOCLDY    61  60  97 S13       29.46
WASKISH        CLOUDY    61  61 100 S6        29.50F
CROOKSTON      CLOUDY    57  55  94 NW15      29.49R
$$
  *****  WEATHER ACROSS CENTRAL AND WEST MINNESOTA  *****

CITY           SKY/WX    TMP DP  RH WIND       PRES   REMARKS
BEMIDJI        CLOUDY    60  59  98 SE9       29.50F
PARK RAPIDS    CLOUDY    63  61  93 S10       29.50F
WADENA         FAIR      59  59 100 SE6       29.52S
DETROIT LAKES  CLOUDY    59  59 100 W16G29    29.56R
MOORHEAD       FAIR      57  52  82 W16       29.55S
FERGUS FALLS   CLOUDY    61  61 100 W17G28    29.59R
ELBOW LAKE     CLOUDY    60  60 100 W17G25    29.60R
MORRIS MN      FAIR      63  61  94 W17G23    29.60R
STAPLES        FAIR      57  57 100 SE9       29.55R
WHEATON        FAIR      61  54  77 W6        29.61F
$$
  *****  WEATHER ELSEWHERE ACROSS MINNESOTA  *****

CITY           SKY/WX    TMP DP  RH WIND       PRES   REMARKS
DULUTH         FOG       59  59 100 SE9       29.66F VSB 3/4
INTRNTL FALLS  MOCLDY    61  59  93 SE17      29.49R
ELY            TSTM      61  59  94 SE16G24   29.68F
CLOQUET        CLOUDY    61  57  88 E6        29.64F
BRAINERD       CLOUDY    61  59  93 SE9       29.60R
HIBBING        LGT RAIN  60  60 100 SE8       29.58R
ALEXANDRIA     FAIR      59  59 100 SW10      29.59R
SAINT CLOUD    MOCLDY    63  63 100 CALM      29.60R
MINNEAPOLIS    MOCLDY    71  68  90 S7        29.61F
$$

  *****  WEATHER ACROSS SOUTH DAKOTA  *****

CITY           SKY/WX    TMP DP  RH WIND       PRES   REMARKS
SIOUX FALLS    FAIR      60  58  92 W6        29.71R
BROOKINGS      FAIR      56  54  93 W13       29.71R
WATERTOWN      FAIR      55  53  93 W14       29.67R
HURON          FAIR      53  50  89 W10       29.74R
SISSETON         N/A     59  54  83 W12       29.62R
ABERDEEN       FAIR      53  48  83 W10       29.68R
MITCHELL       FAIR      55  52  89 W9        29.75R
PIERRE         FAIR      46  42  86 W3        29.76R
MOBRIDGE       FAIR      47  42  83 CALM      29.69R
RAPID CITY     NOT AVBL
$$

  *****  SOME WEATHER IN NEARBY STATES *****

CITY           SKY/WX    TMP DP  RH WIND       PRES   REMARKS
GLASGOW MT     MOCLDY    45  35  68 W6        29.57S
GREAT FALLS MT FAIR      44  27  51 SW18G29   29.61F
CHEYENNE WY    FAIR      43  27  53 W8        29.94R
SCOTTSBLUFF NE FAIR      49  33  54 NW8       29.88R
OMAHA NE       MOCLDY    75  69  81 S3        29.64S
DES MOINES IA  MOCLDY    76  68  76 S15       29.67S
DAVENPORT IA   FAIR      67  63  87 SE8       29.85S
CHICAGO IL     FAIR      64  62  93 SE5       29.92R FOG
EAU CLAIRE WI  FAIR      67  62  84 SE20G25   29.66F
LA CROSSE WI   FAIR      71  64  78 S16G22    29.71F
$$

  *****  SOME NATIONAL WEATHER *****

CITY           SKY/WX    TMP DP  RH WIND       PRES   REMARKS
LA GUARDIA NY  MOCLDY    72  65  78 N13G22    29.81S
RALEIGH NC     FAIR      63  63 100 CALM      29.98R
ATLANTA GA     FAIR      70  67  90 CALM      30.01S
NEW ORLEANS LA FAIR      76  74  93 CALM      29.96S
OKLAHOMA CITY  FAIR      71  63  75 S12       29.78S
ALBUQUERQUE NM MOCLDY    67  37  33 SW10      30.03R
SALT LAKE CITY FAIR      48  36  63 S7        29.93F
LOS ANGELES CA FAIR      64  61  90 CALM      29.87F
BOISE ID       FAIR      50  39  66 E13       29.80F
SEATTLE WA     CLOUDY    52  48  86 CALM      29.64F
$$

*** WEATHER ACROSS MANITOBA...SASKATCHEWAN AND ONTARIO ***
                ***ONTARIO***

CITY           SKY/WX    TMP DP  RH WIND       PRES   REMARKS
GERALDTON      CLEAR     50  48  93 E8        29.92F
THUNDER BAY    MOCLDY    57  55  94 E12       29.79F
SIOUX LOOKOUT  TSTM      57  55  94 S10       29.65R
TORONTO        CLEAR     66  63  88 N3        30.01S
BIG TROUT LK   CLOUDY    54  48  82 SE10      29.83F
PICKLE LAKE    NOT AVBL
DRYDEN         TSTM      59  57  94 SE20G28   29.51F
KENORA         LGT RAIN  61  59  94 S12G17    29.44R
$$
                *** MANITOBA***

CITY           SKY/WX    TMP DP  RH WIND       PRES   REMARKS
BRANDON        LGT RAIN  50  46  87 W9G17     29.43S
DAUPHIN        LGT RAIN  52  48  87 W15       29.36R
ISLAND LAKE    NOT AVBL
PILOT MOUND      N/A     52  46  82 W12G20      N/A
THE PAS        LGT RAIN  57  55  94 E15G23    29.19F FOG
THOMPSON       CLOUDY    50  41  71 E16G25    29.56F
WINNIPEG       LGT RAIN  57  54  88 W18       29.38R
LYNN LAKE      LGT RAIN  45  43  93 E22G36    29.56F
CHURCHILL      CLOUDY    41  37  87 E15G22    30.05S
GILLAM         CLOUDY    45  37  76 E10G22    29.80F
$$
                ***SASKATCHEWAN***

CITY           SKY/WX    TMP DP  RH WIND       PRES   REMARKS
ESTEVAN        PTCLDY    45  41  87 W9        29.53S
KINDERSLEY     CLEAR     36  32  87 E10       29.41F
LLOYDMINSTER   CLEAR     32  30  93 SW9       29.37S WCI  24
PRINCE ALBERT  CLOUDY    45  39  81 W13       29.35R
REGINA         CLOUDY    39  36  87 SW6       29.48S
YORKTON        CLOUDY    46  43  87 W12       29.38S



USA.gov is the U.S. government's official web portal to all federal, state and local government web resources and services.